Weather History for Muskegon, MI

Change the Weather History Date:

Wednesday, May 8, 2013

  Actual Average Record
Temperature  
Mean Temperature 64 °F 54 °F  
Max Temperature 76 °F 65 °F 84 °F (1993)
Min Temperature 52 °F 45 °F 27 °F (1976)
Degree Days  
Heating Degree Days 1 11  
Month to date heating degree days 6 96  
Since 1 July heating degree days 6096 6314  
Cooling Degree Days 0 0  
Month to date cooling degree days 10 0  
Year to date cooling degree days 14 4  
Growing Degree Days 14 (Base 50)    
Moisture  
Dew Point 44 °F    
Average Humidity 51    
Maximum Humidity 77    
Minimum Humidity 25    
Precipitation  
Precipitation 0.00 in 0.10 in 0.93 in (2004)
Month to date precipitation 0.15 0.81  
Year to date precipitation 18.27 9.83  
Snow  
Snow 0.00 in 0.00 in T in (1960)
Month to date snowfall 0.0 0.0  
Since 1 July snowfall 98.6 93.7  
Snow Depth 0.00 in    
Sea Level Pressure  
Sea Level Pressure 30.00 in    
Wind  
Wind Speed 4 mph (West)    
Max Wind Speed 14 mph    
Max Gust Speed 18 mph    
Visibility 10 miles    
Events      
T = Trace of Precipitation, MM = Missing Value Source: NWS Daily Summary

Daily Weather History Graph

Daily Weather History Graph

Search for Another Location

Airport:

Trip Planner

Search our weather history database for the weather conditions in past years. The results will help you decide how hot, cold, wet, or windy it might be!

Date:

Astronomy

May. 08, 2013 Rise Set
Actual Time 6:28 AM EDT 8:54 PM EDT
Civil Twilight 5:56 AM EDT 9:26 PM EDT
Nautical Twilight 5:17 AM EDT 10:06 PM EDT
Astronomical Twilight 4:32 AM EDT 10:51 PM EDT
Moon 5:38 AM EDT (5/8) 7:51 PM EDT (5/8)
Length of Visible Light 15h 29m
Length of Day
14h 25m
Waning Crescent, 2% of the Moon is Illuminated
May 8
Waning Crescent
May 9
New
May 18
First Quarter
May 25
Full
May 31
Last Quarter

Hourly Weather History & Observations

Time (EDT) Temp. Dew Point Humidity Pressure Visibility Wind Dir Wind Speed Gust Speed Precip Events Conditions
12:55 AM 59.0 °F 42.1 °F 53% 30.01 in 10.0 mi Calm Calm - N/A   Partly Cloudy
1:55 AM 59.0 °F 42.1 °F 53% 30.00 in 10.0 mi NNE 3.5 mph - N/A   Clear
2:55 AM 59.0 °F 41.0 °F 51% 29.99 in 10.0 mi Calm Calm - N/A   Clear
3:55 AM 57.0 °F 42.1 °F 57% 29.99 in 10.0 mi Calm Calm - N/A   Clear
4:55 AM 54.0 °F 44.1 °F 69% 30.00 in 10.0 mi Calm Calm - N/A   Clear
5:55 AM 54.0 °F 44.1 °F 69% 30.01 in 10.0 mi Calm Calm - N/A   Scattered Clouds
6:55 AM 53.1 °F 46.0 °F 77% 30.02 in 10.0 mi Calm Calm - N/A   Partly Cloudy
7:55 AM 59.0 °F 48.9 °F 69% 30.04 in 10.0 mi ESE 4.6 mph - N/A   Mostly Cloudy
8:55 AM 66.0 °F 50.0 °F 56% 30.04 in 10.0 mi South 3.5 mph - N/A   Scattered Clouds
9:55 AM 68.0 °F 48.0 °F 49% 30.04 in 10.0 mi SW 6.9 mph - N/A   Scattered Clouds
10:55 AM 69.1 °F 46.0 °F 44% 30.04 in 10.0 mi SSW 4.6 mph - N/A   Partly Cloudy
11:55 AM 73.0 °F 45.0 °F 37% 30.04 in 10.0 mi SW 8.1 mph - N/A   Partly Cloudy
12:55 PM 75.9 °F 46.9 °F 36% 30.03 in 10.0 mi WSW 8.1 mph - N/A   Partly Cloudy
1:55 PM 73.0 °F 46.9 °F 39% 30.02 in 10.0 mi WSW 8.1 mph - N/A   Partly Cloudy
2:55 PM 75.0 °F 37.0 °F 25% 30.01 in 10.0 mi WNW 10.4 mph - N/A   Partly Cloudy
3:55 PM 73.0 °F 37.9 °F 28% 30.00 in 10.0 mi WNW 13.8 mph - N/A   Scattered Clouds
4:55 PM 75.0 °F 39.9 °F 28% 29.99 in 10.0 mi WNW 8.1 mph - N/A   Partly Cloudy
5:55 PM 75.0 °F 41.0 °F 29% 29.98 in 10.0 mi WNW 8.1 mph - N/A   Partly Cloudy
6:55 PM 75.9 °F 43.0 °F 31% 29.97 in 10.0 mi WNW 5.8 mph - N/A   Partly Cloudy
7:55 PM 73.0 °F 45.0 °F 37% 29.97 in 10.0 mi WNW 4.6 mph - N/A   Clear
8:55 PM 66.0 °F 42.1 °F 42% 29.97 in 10.0 mi West 4.6 mph - N/A   Clear
9:55 PM 63.0 °F 44.1 °F 50% 29.98 in 10.0 mi Calm Calm - N/A   Clear
10:55 PM 57.0 °F 45.0 °F 64% 29.98 in 10.0 mi Calm Calm - N/A   Clear
11:55 PM 55.0 °F 45.0 °F 69% 29.98 in 10.0 mi Calm Calm - N/A   Clear